Home   Weather   Camagüey   Past weeks

Flag for Cuba Past Weather in Camagüey, Cuba — Yesterday and Last 2 Weeks

Now
75 °F

Clear.


Feels Like: 74 °F
Forecast: 75 / 91 °F
Wind: 7 mph from East

Location: Camaguey Aeropuerto

Current Time: Aug 20, 2017 at 6:09:29 am

Latest Report: Aug 20, 2017 at 4:50 am


Visibility: 6 mi

Pressure: 29.92 "Hg

Humidity: 94%

Dew Point: 73 °F

Location of CamagüeyLocation

Past Weather in Camagüey — Graph

°F

Camagüey Temperature Yesterday

Maximum temperature yesterday: 93 °F (at 3:52 pm)
Minimum temperature yesterday: 77 °F (at 4:50 am)
Average temperature yesterday: 83 °F

High & Low Weather Summary for the Past Weeks

 TemperatureHumidityPressure
High93 °F (Aug 13, 2:50 pm)100% (Aug 5, 7:50 am)30.12 "Hg (Aug 5, 7:50 am)
Low70 °F (Aug 13, 5:29 pm)39% (Aug 14, 3:50 pm)29.86 "Hg (Aug 19, 4:55 pm)
Average81 °F77%30.01 "Hg
* Reported Aug 5 4:50 am — Aug 20 4:50 am, Camagüey. Weather by CustomWeather, © 2017

Note: Actual official high and low records may vary slightly from our data, if they occured in-between our weather recording intervals... More about our weather records

Advertising

Camagüey Weather History for the Previous 24 Hours

Scroll right to see more
 ConditionsComfort  
Time TempWeatherWind HumidityBarometerVisibility
4:50 am
Sun, Aug 20
75 °FClear.7 mph94%29.92 "Hg6 mi
3:50 am75 °FClear.8 mph94%29.92 "Hg6 mi
2:50 am75 °FClear.8 mph94%29.95 "Hg6 mi
1:50 am75 °FPassing clouds.7 mph94%29.95 "Hg6 mi
12:50 am77 °FPassing clouds.9 mph94%29.95 "Hg6 mi
11:50 pm
Sat, Aug 19
77 °FPassing clouds.7 mph94%29.98 "Hg6 mi
10:50 pm79 °FPassing clouds.7 mph89%29.95 "Hg6 mi
9:50 pm79 °FPassing clouds.9 mph84%29.95 "Hg6 mi
8:50 pm81 °FPassing clouds.9 mph74%29.95 "Hg6 mi
7:50 pm84 °FPassing clouds.5 mph62%29.92 "Hg6 mi
6:50 pm84 °FScattered clouds.13 mph58%29.92 "Hg6 mi
5:52 pm86 °FPartly sunny.12 mph55%29.89 "Hg6 mi
4:55 pm90 °FPartly sunny.10 mph52%29.86 "Hg6 mi
3:52 pm93 °FPassing clouds.12 mph49%29.89 "HgN/A
2:51 pm91 °FScattered clouds.9 mph49%29.92 "HgN/A
1:50 pm91 °FScattered clouds.10 mph49%29.95 "HgN/A
12:53 pm90 °FPartly sunny.8 mph52%29.95 "HgN/A
11:54 am88 °FPartly sunny.7 mph59%29.98 "HgN/A
10:50 am86 °FPartly sunny.9 mph70%29.98 "Hg6 mi
9:50 am84 °FPassing clouds.9 mph74%29.98 "Hg6 mi
8:52 am81 °FScattered clouds.6 mph89%29.95 "Hg6 mi
7:54 am77 °FFog.5 mph100%29.95 "Hg4 mi
6:51 am77 °FFog.3 mph94%29.92 "Hg4 mi
Weather by CustomWeather, © 2017

See weather overviewHow to use our weather pages